QPF
0.02 0.04 0.03 0.01 0.01 0.01 0.01 0.01 0.02 0.04 0.06 0.07 0.10 0.14 0.15 0.13 0.13 0.11 0.10 0.09 0.09 0.09 0.09 0.06 0.03 0.02 0.03 0.03 0.03 0.02 0.03 0.03 0.03 0.03 0.02 0.01 0.00 0.00 0.00 0.00 0.00 0.00 0.00
0.02 0.03 0.02 0.01 0.01 0.01 0.01 0.02 0.01 0.01 0.04 0.07 0.08 0.11 0.14 0.14 0.15 0.14 0.12 0.10 0.10 0.10 0.09 0.09 0.07 0.04 0.03 0.03 0.03 0.03 0.03 0.03 0.04 0.04 0.03 0.03 0.02 0.01 0.01 0.01 0.01 0.01 0.01
0.02 0.02 0.02 0.01 0.01 0.01 0.02 0.03 0.01 0.00 0.01 0.04 0.07 0.08 0.11 0.12 0.13 0.15 0.13 0.12 0.11 0.12 0.11 0.11 0.10 0.08 0.05 0.04 0.04 0.04 0.04 0.05 0.06 0.05 0.05 0.05 0.06 0.04 0.02 0.02 0.02 0.03 0.03
0.01 0.02 0.01 0.01 0.00 0.01 0.02 0.03 0.02 0.00 0.00 0.01 0.04 0.06 0.09 0.10 0.11 0.14 0.13 0.12 0.12 0.12 0.13 0.13 0.13 0.11 0.09 0.07 0.05 0.05 0.06 0.06 0.07 0.06 0.04 0.04 0.04 0.05 0.06 0.04 0.03 0.02 0.03
0.01 0.01 0.01 0.00 0.00 0.00 0.01 0.04 0.04 0.01 0.00 0.00 0.01 0.03 0.04 0.06 0.07 0.10 0.12 0.10 0.10 0.12 0.12 0.13 0.14 0.14 0.13 0.10 0.08 0.06 0.05 0.05 0.07 0.08 0.06 0.04 0.03 0.03 0.03 0.04 0.03 0.02 0.03
0.00 0.01 0.00 0.00 0.00 0.00 0.01 0.03 0.05 0.02 0.00 0.00 0.00 0.01 0.01 0.02 0.03 0.06 0.10 0.09 0.08 0.09 0.11 0.12 0.12 0.12 0.13 0.13 0.12 0.10 0.08 0.06 0.05 0.06 0.07 0.06 0.06 0.04 0.03 0.03 0.04 0.04 0.04
0.00 0.00 0.00 0.00 0.00 0.00 0.00 0.01 0.03 0.02 0.00 0.00 0.00 0.01 0.01 0.01 0.01 0.02 0.05 0.08 0.08 0.07 0.08 0.09 0.10 0.10 0.10 0.10 0.10 0.11 0.11 0.10 0.08 0.07 0.05 0.04 0.04 0.03 0.03 0.03 0.03 0.03 0.03
0.00 0.00 0.00 0.00 0.00 0.00 0.00 0.01 0.02 0.01 0.00 0.00 0.00 0.00 0.01 0.01 0.01 0.01 0.02 0.03 0.06 0.06 0.05 0.05 0.06 0.08 0.09 0.08 0.08 0.08 0.09 0.09 0.09 0.09 0.07 0.05 0.03 0.03 0.02 0.02 0.02 0.02 0.03
0.00 0.00 0.00 0.00 0.00 0.00 0.00 0.00 0.00 0.00 0.00 0.01 0.01 0.01 0.01 0.02 0.02 0.01 0.01 0.01 0.03 0.04 0.03 0.03 0.03 0.04 0.05 0.06 0.07 0.07 0.07 0.07 0.08 0.08 0.08 0.07 0.05 0.04 0.03 0.02 0.03 0.04 0.03
0.00 0.00 0.00 0.00 0.00 0.00 0.00 0.00 0.00 0.00 0.00 0.01 0.02 0.01 0.02 0.03 0.03 0.02 0.02 0.01 0.01 0.02 0.02 0.02 0.02 0.02 0.03 0.04 0.05 0.06 0.06 0.06 0.06 0.07 0.07 0.07 0.06 0.05 0.04 0.03 0.03 0.04 0.05
0.00 0.00 0.00 0.00 0.00 0.00 0.00 0.00 0.00 0.00 0.01 0.01 0.02 0.02 0.03 0.03 0.04 0.03 0.02 0.01 0.01 0.00 0.01 0.01 0.01 0.02 0.02 0.02 0.03 0.04 0.05 0.06 0.06 0.06 0.06 0.06 0.06 0.06 0.05 0.05 0.04 0.03 0.04
0.00 0.00 0.00 0.00 0.00 0.00 0.00 0.00 0.01 0.01 0.01 0.01 0.02 0.02 0.03 0.03 0.03 0.03 0.03 0.01 0.00 0.00 0.00 0.00 0.00 0.01 0.01 0.01 0.02 0.02 0.02 0.03 0.03 0.04 0.04 0.04 0.04 0.05 0.05 0.05 0.04 0.04 0.04
0.00 0.00 0.00 0.00 0.00 0.00 0.00 0.00 0.00 0.01 0.01 0.02 0.02 0.02 0.02 0.02 0.02 0.02 0.02 0.01 0.00 0.00 0.00 0.00 0.00 0.00 0.00 0.00 0.01 0.01 0.01 0.02 0.02 0.02 0.02 0.03 0.03 0.03 0.04 0.04 0.04 0.04 0.04
0.00 0.00 0.00 0.00 0.00 0.00 0.00 0.00 0.00 0.00 0.00 0.01 0.02 0.01 0.01 0.01 0.01 0.01 0.01 0.01 0.00 0.00 0.00 0.00 0.00 0.00 0.00 0.00 0.00 0.00 0.00 0.01 0.01 0.01 0.02 0.02 0.02 0.03 0.03 0.04 0.04 0.04 0.04
0.00 0.00 0.00 0.00 0.00 0.00 0.00 0.00 0.00 0.00 0.00 0.01 0.01 0.01 0.01 0.01 0.01 0.01 0.00 0.00 0.00 0.00 0.00 0.00 0.00 0.00 0.00 0.00 0.00 0.00 0.00 0.00 0.01 0.01 0.01 0.02 0.02 0.03 0.03 0.04 0.04 0.05 0.05
0.00 0.00 0.00 0.00 0.00 0.00 0.00 0.00 0.00 0.00 0.00 0.00 0.00 0.00 0.01 0.01 0.01 0.00 0.00 0.00 0.00 0.00 0.00 0.00 0.00 0.00 0.00 0.00 0.01 0.01 0.00 0.00 0.00 0.00 0.01 0.01 0.02 0.02 0.03 0.03 0.03 0.03 0.04
0.00 0.00 0.00 0.00 0.00 0.00 0.00 0.00 0.00 0.00 0.00 0.00 0.00 0.00 0.00 0.00 0.00 0.01 0.01 0.01 0.01 0.00 0.00 0.00 0.00 0.00 0.01 0.01 0.01 0.01 0.01 0.00 0.00 0.00 0.01 0.01 0.01 0.02 0.02 0.02 0.02 0.02 0.03
0.00 0.00 0.00 0.00 0.00 0.00 0.00 0.00 0.00 0.00 0.00 0.00 0.00 0.00 0.00 0.00 0.00 0.01 0.01 0.01 0.01 0.01 0.01 0.01 0.01 0.01 0.01 0.01 0.01 0.01 0.01 0.00 0.00 0.00 0.00 0.01 0.01 0.02 0.02 0.03 0.02 0.02 0.02
0.00 0.00 0.00 0.00 0.00 0.00 0.00 0.00 0.00 0.00 0.00 0.00 0.00 0.00 0.00 0.00 0.00 0.01 0.01 0.01 0.01 0.01 0.01 0.01 0.01 0.01 0.00 0.01 0.01 0.02 0.01 0.01 0.01 0.00 0.00 0.01 0.01 0.01 0.02 0.03 0.03 0.02 0.02
0.00 0.00 0.00 0.00 0.01 0.00 0.00 0.00 0.00 0.00 0.00 0.00 0.00 0.00 0.00 0.00 0.01 0.01 0.01 0.01 0.01 0.01 0.01 0.00 0.00 0.00 0.00 0.01 0.01 0.02 0.01 0.01 0.01 0.01 0.01 0.01 0.01 0.01 0.02 0.02 0.03 0.03 0.03
0.00 0.00 0.00 0.01 0.01 0.01 0.00 0.00 0.00 0.00 0.00 0.00 0.00 0.00 0.01 0.01 0.01 0.01 0.01 0.01 0.01 0.01 0.01 0.00 0.00 0.00 0.00 0.00 0.01 0.01 0.02 0.02 0.01 0.01 0.01 0.01 0.01 0.02 0.03 0.03 0.03 0.03 0.03
0.00 0.00 0.00 0.00 0.00 0.00 0.00 0.00 0.00 0.00 0.01 0.01 0.01 0.01 0.01 0.01 0.01 0.01 0.01 0.01 0.01 0.01 0.01 0.01 0.01 0.01 0.01 0.01 0.01 0.01 0.01 0.01 0.01 0.01 0.01 0.01 0.02 0.02 0.03 0.03 0.03 0.03 0.03
0.00 0.00 0.00 0.00 0.00 0.00 0.00 0.01 0.01 0.01 0.01 0.01 0.01 0.01 0.00 0.00 0.00 0.01 0.01 0.01 0.01 0.01 0.01 0.01 0.01 0.01 0.01 0.01 0.01 0.01 0.01 0.02 0.01 0.01 0.01 0.01 0.02 0.02 0.02 0.02 0.03 0.02 0.02
0.00 0.00 0.00 0.00 0.00 0.00 0.00 0.01 0.01 0.01 0.01 0.01 0.01 0.00 0.00 0.00 0.00 0.00 0.00 0.01 0.01 0.01 0.01 0.01 0.01 0.01 0.01 0.00 0.01 0.01 0.01 0.01 0.01 0.01 0.01 0.01 0.01 0.01 0.01 0.01 0.01 0.01 0.01
0.00 0.00 0.00 0.00 0.00 0.00 0.00 0.01 0.01 0.01 0.01 0.01 0.01 0.01 0.01 0.01 0.00 0.00 0.00 0.01 0.01 0.01 0.02 0.01 0.01 0.01 0.01 0.01 0.01 0.02 0.01 0.01 0.01 0.02 0.02 0.02 0.01 0.01 0.01 0.01 0.01 0.01 0.01
0.00 0.00 0.00 0.00 0.00 0.00 0.01 0.01 0.01 0.01 0.01 0.01 0.01 0.01 0.01 0.01 0.01 0.00 0.00 0.01 0.01 0.01 0.01 0.01 0.01 0.01 0.01 0.01 0.01 0.01 0.01 0.01 0.02 0.02 0.02 0.02 0.02 0.01 0.01 0.01 0.01 0.01 0.01
MSLP
1011.34 1011.23 1011.13 1011.05 1011.01 1011.03 1011.14 1011.35 1011.66 1012.07 1012.53 1013.02 1013.50 1013.94 1014.33 1014.66 1014.94 1015.19 1015.42 1015.65 1015.90 1016.17 1016.46 1016.76 1017.07 1017.37 1017.67 1017.94 1018.20 1018.42 1018.62 1018.77 1018.88 1018.94 1018.95 1018.90 1018.82 1018.70 1018.57 1018.43 1018.31 1018.22 1018.18
1010.85 1010.72 1010.60 1010.47 1010.38 1010.34 1010.40 1010.57 1010.87 1011.28 1011.78 1012.33 1012.87 1013.38 1013.82 1014.18 1014.47 1014.71 1014.92 1015.13 1015.35 1015.60 1015.88 1016.18 1016.50 1016.81 1017.10 1017.38 1017.63 1017.85 1018.05 1018.22 1018.35 1018.45 1018.50 1018.51 1018.47 1018.38 1018.27 1018.14 1018.02 1017.93 1017.87
1010.20 1010.07 1009.94 1009.80 1009.67 1009.59 1009.60 1009.73 1010.01 1010.43 1010.95 1011.54 1012.14 1012.70 1013.19 1013.59 1013.89 1014.13 1014.33 1014.52 1014.73 1014.96 1015.23 1015.53 1015.84 1016.14 1016.44 1016.70 1016.95 1017.17 1017.38 1017.57 1017.74 1017.88 1017.99 1018.06 1018.07 1018.03 1017.95 1017.84 1017.72 1017.62 1017.55
1009.47 1009.35 1009.22 1009.07 1008.91 1008.80 1008.76 1008.86 1009.11 1009.52 1010.05 1010.66 1011.29 1011.89 1012.42 1012.85 1013.18 1013.43 1013.64 1013.82 1014.03 1014.26 1014.52 1014.81 1015.12 1015.42 1015.70 1015.97 1016.21 1016.43 1016.65 1016.87 1017.08 1017.28 1017.45 1017.58 1017.65 1017.67 1017.62 1017.53 1017.41 1017.30 1017.21
1008.75 1008.65 1008.53 1008.37 1008.19 1008.04 1007.96 1008.01 1008.22 1008.58 1009.09 1009.70 1010.34 1010.97 1011.53 1011.99 1012.35 1012.63 1012.85 1013.06 1013.27 1013.51 1013.78 1014.07 1014.38 1014.67 1014.95 1015.21 1015.45 1015.68 1015.92 1016.16 1016.42 1016.66 1016.90 1017.09 1017.22 1017.28 1017.26 1017.19 1017.08 1016.95 1016.85
1008.16 1008.08 1007.97 1007.80 1007.60 1007.41 1007.27 1007.25 1007.39 1007.69 1008.16 1008.73 1009.36 1009.99 1010.57 1011.06 1011.46 1011.78 1012.04 1012.28 1012.52 1012.78 1013.06 1013.36 1013.67 1013.96 1014.24 1014.49 1014.73 1014.97 1015.22 1015.49 1015.77 1016.06 1016.34 1016.58 1016.76 1016.86 1016.88 1016.82 1016.71 1016.58 1016.46
1007.80 1007.73 1007.62 1007.45 1007.22 1006.97 1006.77 1006.66 1006.72 1006.94 1007.33 1007.86 1008.45 1009.07 1009.66 1010.18 1010.62 1010.98 1011.29 1011.57 1011.85 1012.13 1012.43 1012.74 1013.04 1013.33 1013.60 1013.84 1014.08 1014.32 1014.58 1014.86 1015.17 1015.49 1015.81 1016.08 1016.29 1016.42 1016.45 1016.41 1016.31 1016.18 1016.06
1007.70 1007.66 1007.55 1007.36 1007.10 1006.79 1006.52 1006.33 1006.29 1006.43 1006.74 1007.19 1007.74 1008.33 1008.92 1009.46 1009.93 1010.34 1010.70 1011.02 1011.32 1011.63 1011.94 1012.24 1012.53 1012.80 1013.06 1013.29 1013.51 1013.75 1014.01 1014.30 1014.62 1014.96 1015.28 1015.58 1015.80 1015.95 1016.00 1015.98 1015.89 1015.77 1015.65
1007.89 1007.86 1007.75 1007.55 1007.25 1006.90 1006.56 1006.30 1006.18 1006.23 1006.45 1006.83 1007.33 1007.89 1008.46 1009.01 1009.50 1009.94 1010.32 1010.67 1010.99 1011.30 1011.60 1011.89 1012.15 1012.39 1012.62 1012.82 1013.03 1013.26 1013.51 1013.80 1014.12 1014.46 1014.79 1015.08 1015.32 1015.47 1015.54 1015.53 1015.46 1015.37 1015.26
1008.28 1008.26 1008.16 1007.95 1007.64 1007.26 1006.88 1006.57 1006.38 1006.37 1006.53 1006.84 1007.28 1007.80 1008.35 1008.88 1009.37 1009.81 1010.20 1010.55 1010.86 1011.15 1011.42 1011.66 1011.89 1012.09 1012.27 1012.45 1012.63 1012.84 1013.08 1013.37 1013.68 1014.01 1014.34 1014.63 1014.86 1015.02 1015.09 1015.10 1015.05 1014.98 1014.92
1008.74 1008.75 1008.66 1008.46 1008.15 1007.78 1007.40 1007.08 1006.87 1006.82 1006.94 1007.20 1007.60 1008.06 1008.57 1009.07 1009.53 1009.95 1010.31 1010.63 1010.91 1011.15 1011.36 1011.55 1011.72 1011.86 1012.00 1012.14 1012.30 1012.49 1012.72 1013.00 1013.31 1013.63 1013.94 1014.22 1014.44 1014.60 1014.68 1014.70 1014.68 1014.64 1014.61
1009.14 1009.16 1009.10 1008.93 1008.66 1008.33 1007.99 1007.70 1007.52 1007.47 1007.58 1007.82 1008.17 1008.58 1009.04 1009.48 1009.90 1010.26 1010.58 1010.84 1011.06 1011.25 1011.40 1011.52 1011.63 1011.72 1011.81 1011.92 1012.05 1012.22 1012.45 1012.71 1013.01 1013.32 1013.62 1013.88 1014.09 1014.24 1014.32 1014.35 1014.35 1014.34 1014.34
1009.31 1009.36 1009.32 1009.20 1008.99 1008.74 1008.49 1008.29 1008.18 1008.18 1008.30 1008.54 1008.86 1009.23 1009.63 1010.01 1010.36 1010.66 1010.91 1011.12 1011.28 1011.41 1011.50 1011.56 1011.61 1011.66 1011.71 1011.78 1011.89 1012.05 1012.26 1012.51 1012.79 1013.09 1013.37 1013.61 1013.80 1013.93 1014.01 1014.04 1014.05 1014.05 1014.07
1009.16 1009.22 1009.22 1009.16 1009.04 1008.90 1008.78 1008.70 1008.70 1008.79 1008.96 1009.22 1009.53 1009.86 1010.20 1010.52 1010.81 1011.05 1011.25 1011.40 1011.51 1011.59 1011.64 1011.67 1011.68 1011.69 1011.71 1011.76 1011.85 1011.98 1012.17 1012.40 1012.66 1012.92 1013.17 1013.38 1013.55 1013.66 1013.71 1013.73 1013.73 1013.74 1013.77
1008.64 1008.70 1008.73 1008.74 1008.73 1008.73 1008.76 1008.84 1008.98 1009.18 1009.43 1009.72 1010.04 1010.35 1010.65 1010.92 1011.16 1011.36 1011.52 1011.65 1011.74 1011.81 1011.85 1011.86 1011.86 1011.85 1011.85 1011.87 1011.93 1012.03 1012.18 1012.37 1012.58 1012.80 1013.01 1013.18 1013.30 1013.37 1013.39 1013.39 1013.37 1013.37 1013.39
1007.79 1007.84 1007.89 1007.97 1008.07 1008.22 1008.41 1008.66 1008.95 1009.29 1009.64 1009.99 1010.33 1010.64 1010.92 1011.17 1011.38 1011.56 1011.72 1011.86 1011.97 1012.06 1012.11 1012.14 1012.15 1012.13 1012.11 1012.10 1012.12 1012.17 1012.26 1012.39 1012.54 1012.69 1012.83 1012.94 1013.01 1013.04 1013.02 1012.98 1012.94 1012.91 1012.91
1006.72 1006.73 1006.80 1006.93 1007.14 1007.42 1007.78 1008.20 1008.66 1009.13 1009.59 1010.02 1010.40 1010.73 1011.01 1011.26 1011.47 1011.67 1011.86 1012.04 1012.20 1012.34 1012.44 1012.50 1012.53 1012.51 1012.47 1012.42 1012.38 1012.36 1012.37 1012.41 1012.48 1012.55 1012.62 1012.66 1012.67 1012.64 1012.58 1012.50 1012.42 1012.35 1012.32
1005.57 1005.54 1005.60 1005.78 1006.08 1006.49 1007.00 1007.58 1008.19 1008.79 1009.35 1009.85 1010.29 1010.65 1010.96 1011.23 1011.47 1011.72 1011.96 1012.20 1012.43 1012.63 1012.80 1012.90 1012.94 1012.92 1012.86 1012.75 1012.64 1012.53 1012.45 1012.39 1012.36 1012.35 1012.34 1012.31 1012.26 1012.19 1012.08 1011.96 1011.84 1011.74 1011.67
1004.52 1004.44 1004.49 1004.70 1005.07 1005.59 1006.22 1006.94 1007.67 1008.38 1009.04 1009.61 1010.09 1010.50 1010.84 1011.14 1011.43 1011.73 1012.03 1012.34 1012.64 1012.91 1013.13 1013.26 1013.32 1013.28 1013.18 1013.01 1012.82 1012.62 1012.44 1012.29 1012.17 1012.07 1011.99 1011.91 1011.82 1011.71 1011.57 1011.42 1011.26 1011.12 1011.01
1003.70 1003.57 1003.61 1003.84 1004.27 1004.87 1005.60 1006.40 1007.23 1008.03 1008.75 1009.38 1009.91 1010.35 1010.72 1011.06 1011.39 1011.73 1012.09 1012.45 1012.80 1013.11 1013.36 1013.51 1013.56 1013.50 1013.35 1013.12 1012.86 1012.58 1012.31 1012.08 1011.90 1011.74 1011.62 1011.50 1011.39 1011.26 1011.10 1010.93 1010.75 1010.57 1010.41
1003.22 1003.05 1003.08 1003.33 1003.79 1004.44 1005.22 1006.09 1006.97 1007.82 1008.58 1009.24 1009.79 1010.25 1010.64 1011.00 1011.35 1011.72 1012.10 1012.49 1012.86 1013.18 1013.43 1013.58 1013.60 1013.51 1013.31 1013.04 1012.72 1012.39 1012.08 1011.80 1011.58 1011.41 1011.27 1011.15 1011.03 1010.90 1010.74 1010.56 1010.35 1010.14 1009.93
1003.07 1002.90 1002.94 1003.20 1003.68 1004.35 1005.15 1006.03 1006.93 1007.78 1008.54 1009.20 1009.75 1010.21 1010.61 1010.97 1011.32 1011.68 1012.06 1012.44 1012.79 1013.10 1013.32 1013.44 1013.43 1013.30 1013.08 1012.78 1012.44 1012.09 1011.77 1011.50 1011.29 1011.13 1011.01 1010.91 1010.82 1010.70 1010.55 1010.36 1010.13 1009.88 1009.62
1003.26 1003.10 1003.16 1003.43 1003.92 1004.58 1005.37 1006.23 1007.09 1007.91 1008.64 1009.27 1009.80 1010.23 1010.61 1010.95 1011.28 1011.61 1011.96 1012.29 1012.61 1012.86 1013.04 1013.12 1013.08 1012.93 1012.70 1012.40 1012.08 1011.76 1011.48 1011.25 1011.08 1010.97 1010.90 1010.84 1010.78 1010.68 1010.53 1010.33 1010.08 1009.78 1009.47
1003.69 1003.59 1003.67 1003.96 1004.44 1005.07 1005.81 1006.61 1007.40 1008.15 1008.83 1009.40 1009.88 1010.28 1010.62 1010.93 1011.22 1011.51 1011.81 1012.09 1012.34 1012.54 1012.66 1012.70 1012.64 1012.49 1012.28 1012.02 1011.75 1011.49 1011.28 1011.13 1011.03 1010.98 1010.96 1010.95 1010.91 1010.83 1010.68 1010.46 1010.17 1009.84 1009.46
1004.28 1004.26 1004.39 1004.69 1005.14 1005.72 1006.38 1007.09 1007.79 1008.45 1009.04 1009.55 1009.98 1010.34 1010.64 1010.91 1011.17 1011.42 1011.65 1011.88 1012.07 1012.21 1012.30 1012.30 1012.24 1012.11 1011.93 1011.74 1011.54 1011.38 1011.26 1011.19 1011.17 1011.18 1011.21 1011.22 1011.19 1011.10 1010.93 1010.68 1010.36 1009.98 1009.55
1004.95 1005.01 1005.20 1005.50 1005.92 1006.43 1007.00 1007.59 1008.18 1008.74 1009.24 1009.68 1010.06 1010.38 1010.66 1010.91 1011.14 1011.36 1011.56 1011.74 1011.89 1011.99 1012.05 1012.04 1011.99 1011.89 1011.78 1011.65 1011.55 1011.47 1011.43 1011.44 1011.48 1011.53 1011.58 1011.59 1011.54 1011.42 1011.22 1010.93 1010.56 1010.13 1009.67
Thickness
5570 5571 5572 5573 5575 5577 5579 5581 5584 5588 5592 5594 5595 5596 5597 5600 5602 5604 5606 5606 5607 5607 5607 5607 5606 5606 5606 5604 5603 5602 5600 5598 5598 5598 5597 5597 5597 5596 5595 5593 5592 5591 5590
5562 5563 5564 5565 5567 5569 5570 5573 5575 5579 5582 5585 5586 5588 5589 5591 5593 5594 5596 5597 5597 5597 5599 5598 5597 5597 5597 5596 5595 5593 5591 5589 5588 5587 5586 5586 5586 5586 5586 5584 5583 5582 5580
5554 5555 5556 5557 5558 5559 5561 5565 5567 5570 5572 5575 5577 5579 5580 5581 5582 5583 5586 5587 5588 5588 5589 5589 5589 5588 5588 5587 5586 5585 5583 5581 5578 5578 5577 5574 5574 5574 5575 5574 5573 5571 5571
5546 5548 5549 5549 5550 5551 5553 5556 5558 5560 5563 5565 5567 5569 5572 5572 5572 5574 5576 5577 5579 5579 5579 5580 5580 5579 5578 5578 5577 5576 5575 5573 5570 5568 5567 5566 5565 5562 5563 5564 5563 5562 5561
5539 5541 5542 5543 5543 5543 5544 5546 5548 5551 5553 5555 5558 5559 5560 5562 5562 5565 5566 5567 5568 5570 5570 5571 5571 5570 5569 5568 5567 5567 5566 5565 5563 5560 5557 5555 5554 5552 5552 5553 5553 5552 5552
5530 5532 5533 5533 5533 5533 5535 5537 5539 5541 5543 5545 5547 5548 5549 5550 5552 5554 5555 5556 5557 5559 5560 5561 5561 5561 5560 5559 5558 5557 5556 5555 5554 5551 5549 5548 5546 5544 5543 5542 5542 5542 5543
5520 5522 5523 5524 5524 5525 5526 5527 5529 5530 5532 5533 5535 5537 5538 5540 5542 5543 5544 5545 5546 5548 5549 5549 5550 5550 5550 5550 5548 5547 5546 5545 5544 5542 5540 5539 5539 5537 5535 5534 5533 5532 5533
5511 5511 5512 5513 5514 5516 5516 5517 5519 5520 5521 5523 5524 5526 5528 5530 5531 5533 5534 5535 5536 5537 5539 5539 5539 5539 5540 5539 5538 5537 5535 5534 5533 5532 5530 5529 5529 5528 5526 5525 5523 5523 5524
5503 5503 5503 5503 5504 5506 5507 5507 5508 5509 5510 5512 5514 5515 5517 5519 5520 5521 5523 5525 5526 5527 5528 5528 5528 5528 5528 5527 5526 5525 5524 5523 5522 5521 5520 5519 5518 5517 5516 5515 5514 5513 5514
5492 5493 5493 5493 5494 5495 5496 5497 5498 5499 5499 5500 5502 5504 5505 5507 5509 5510 5512 5514 5515 5515 5516 5517 5517 5517 5516 5515 5515 5514 5513 5511 5510 5509 5509 5508 5507 5506 5506 5505 5503 5503 5503
5483 5482 5483 5483 5483 5483 5484 5485 5486 5487 5489 5490 5491 5492 5494 5495 5497 5498 5500 5501 5502 5503 5504 5505 5504 5504 5504 5503 5502 5501 5501 5500 5499 5498 5498 5497 5496 5495 5494 5494 5493 5492 5491
5474 5473 5473 5473 5473 5473 5474 5474 5475 5476 5477 5478 5480 5481 5482 5484 5485 5487 5488 5489 5490 5491 5492 5492 5492 5492 5491 5491 5490 5489 5488 5488 5487 5487 5486 5486 5485 5484 5483 5483 5482 5481 5480
5466 5464 5463 5463 5463 5464 5464 5464 5465 5466 5467 5468 5469 5469 5470 5472 5473 5474 5476 5477 5478 5479 5480 5479 5479 5479 5479 5479 5478 5478 5477 5477 5476 5476 5476 5475 5474 5473 5472 5472 5471 5470 5469
5458 5456 5454 5454 5454 5455 5455 5455 5455 5456 5457 5457 5458 5459 5459 5460 5461 5463 5464 5465 5466 5467 5467 5467 5467 5467 5467 5467 5467 5466 5466 5465 5465 5465 5464 5463 5463 5462 5461 5461 5460 5459 5458
5453 5452 5449 5447 5447 5446 5446 5447 5447 5447 5447 5447 5447 5448 5448 5448 5449 5450 5451 5453 5454 5455 5455 5455 5455 5455 5455 5455 5455 5455 5455 5454 5453 5453 5452 5452 5452 5451 5450 5450 5449 5448 5447
5447 5445 5443 5441 5440 5439 5439 5439 5438 5438 5437 5437 5436 5437 5437 5437 5438 5438 5439 5440 5441 5442 5442 5442 5443 5443 5444 5445 5445 5445 5443 5442 5441 5441 5441 5440 5440 5440 5440 5439 5439 5438 5436
5442 5439 5437 5435 5434 5432 5432 5431 5430 5429 5427 5427 5426 5426 5426 5426 5426 5426 5427 5427 5428 5429 5430 5430 5430 5431 5431 5433 5434 5433 5432 5430 5430 5429 5429 5429 5429 5428 5427 5427 5427 5426 5425
5437 5434 5431 5429 5427 5425 5424 5422 5421 5419 5418 5417 5416 5415 5415 5414 5414 5414 5415 5415 5416 5417 5418 5419 5419 5419 5420 5421 5422 5422 5420 5419 5418 5418 5417 5417 5416 5416 5416 5416 5415 5414 5413
5431 5428 5426 5423 5421 5418 5416 5414 5412 5410 5409 5408 5406 5405 5404 5404 5404 5404 5404 5404 5404 5406 5407 5408 5408 5408 5409 5410 5411 5411 5409 5409 5408 5407 5407 5406 5406 5406 5406 5405 5404 5404 5403
5423 5421 5418 5416 5414 5411 5409 5406 5404 5402 5401 5400 5398 5396 5395 5394 5394 5394 5394 5394 5394 5395 5396 5397 5397 5397 5398 5399 5400 5400 5399 5399 5398 5397 5396 5396 5395 5395 5395 5394 5393 5393 5393
5417 5414 5411 5409 5407 5404 5401 5399 5397 5395 5394 5392 5390 5388 5386 5385 5385 5384 5384 5384 5384 5385 5386 5387 5388 5388 5388 5389 5390 5391 5390 5389 5388 5386 5385 5385 5385 5385 5385 5384 5383 5383 5383
5409 5407 5403 5402 5400 5397 5394 5392 5390 5389 5386 5383 5381 5379 5378 5376 5376 5374 5374 5374 5373 5374 5375 5376 5377 5378 5378 5379 5380 5381 5381 5380 5378 5377 5376 5375 5375 5375 5374 5373 5373 5372 5372
5403 5400 5397 5395 5392 5390 5387 5384 5383 5380 5378 5375 5372 5370 5369 5367 5366 5365 5365 5364 5364 5364 5366 5366 5367 5368 5368 5369 5370 5371 5370 5370 5369 5368 5367 5367 5366 5364 5362 5361 5361 5360 5358
5395 5393 5390 5388 5385 5383 5380 5378 5375 5372 5369 5367 5364 5363 5361 5359 5357 5356 5356 5356 5356 5356 5357 5358 5358 5358 5359 5359 5360 5360 5359 5359 5358 5357 5356 5356 5355 5353 5351 5350 5348 5347 5346
5389 5386 5383 5381 5379 5376 5374 5371 5368 5365 5361 5359 5357 5355 5354 5351 5349 5348 5348 5348 5349 5349 5349 5350 5349 5349 5350 5351 5352 5351 5350 5349 5348 5346 5345 5344 5342 5341 5340 5339 5337 5336 5336
5382 5380 5377 5375 5373 5370 5367 5364 5360 5357 5354 5352 5349 5347 5345 5343 5341 5340 5340 5341 5341 5343 5343 5343 5342 5342 5343 5343 5343 5342 5341 5340 5338 5335 5334 5333 5331 5330 5329 5328 5327 5326 5326